CZ-4C DEB

Satellite information

Favourite Embed

Satellite Type and Status

DEBRISIN ORBIT

Key statistics

Satellite CZ-4C DEB at a glance.

Uptime

2585

Days in orbit

Revolutions

≈ 13.4

Per day

Orbit

LEO

Low Earth Orbit

Inclination

63.4

Latest

Satellite identification and parameters

Extended collection of information and parameters for CZ-4C DEB.

Object identification

Identified? True

Debris? True

Object name: CZ-4C DEB

International designator: 2018-034M

Object number (NORAD): 45484

Object ID (CCSDS): 45484

Country: PEOPLES REPUBLIC OF CHINA (PRC)

Current information (Y/N): Y

RCS size: SMALL

Orbital parameters

Period: 107.229 minutes

Inclination: 63.3905 deg

SMA: 7476.574 km

Apoapsis: 1270.277 km

Periapsis: 926.602 km

RAAN: 84.3392 deg

Eccentricy: 0.0229834

Argument of periapsis: 7.2119 deg

Mean anomaly: 353.2119 deg

Mean motion: 13.42915763 rev/day

Mean motion (dot): -0.00000031 rev/day2

B* drag term: 0.000087981 1/REarth

Two-line elements (TLE)

Creation date: May 7, 2025, 3:14 a.m.

Reference frame: TEME

Reference center: EARTH

Epoch: May 6, 2025, 6:58 a.m. UTC

TLE line 0: 0 CZ-4C DEB

TLE line 1: 1 45484U 18034M 25126.29094158 -.00000031 00000-0 87981-4 0 9997

TLE line 2: 2 45484 63.3905 84.3392 0229834 7.2119 353.2119 13.42915763312764

Live tracking on map

Real-time ground track for satellite CZ-4C DEB.

In-orbit conjunctions

A list of the most updated potential collisions computed for object CZ-4C DEB.

Target Orbit TCA Probability of collision Miss distance Type
SCOUT G-1 DEB SSO 2024-10-29 05:06:44 0.0002666668 125.0 (m) DEBRIS

Associated space launch

CZ-4C DEB was lifted into orbit during the mission ‘Long March 4C | 3 x Yaogan-31-01’, on board a Long March 4C space rocket.

The launch took place on April 10, 2018, 4:25 a.m. from Launch Area 4 (SLS-2 / 603).

For more information about the launch, click the button.

Launch to space Long March 4C | 3 x Yaogan-31-01
Long March 4C | 3 x Yaogan-31-01

Agency: N/A

Status: Launch Successful

Launch date: April 10, 2018, 4:25 a.m. UTC

Rocket: Long March 4C

Launch pad: Launch Area 4 (SLS-2 / 603)

Location: Jiuquan Satellite Launch Center, People's Republic of China

...

Latest news about this satellite

There are no fresh news available about this satellite. Check back as we update our databases every day.


Newsletter sign-up

Weekly statistics, charts and insights to help you stay on top of the space industry.